Flag for Hungary Weather past 2 weeks in Győr, Hungary

Now
90 °F

Hot.


Feels Like: 89 °F
Forecast: 67 / 96 °F
Wind: 3 mph from South

Location: Gyor

Current Time: Aug 30, 2015 at 8:37:57 PM

Latest Report: Aug 30, 2015 at 7:00 PM


Visibility: N/A

Pressure: 30.05 "Hg

Humidity: 33%

Dew point: 57 °F

Location of GyőrLocation

Historic Weather in Győr — Graph

°F

Győr temperature yesterday

Maximum temperature yesterday: 92 °F (at 4:00 PM)
Minimum temperature yesterday: 62 °F (at 6:00 AM)
Average temperature yesterday: 76 °F

Past Weeks' High & Low Weather Summary

 TemperatureHumidityPressure
High95 °F (Aug 30, 4:00 PM)100% (Aug 17, 1:00 AM)30.23 "Hg (Aug 17, 1:00 AM)
Low52 °F (Aug 22, 5:00 AM)25% (Aug 30, 5:00 PM)29.68 "Hg (Aug 16, 9:00 PM)
Average69 °F76%30.01 "Hg
* Reported Aug 15 7:00 PM — Aug 30 7:00 PM, Győr, Weather by CustomWeather, © 2015

Note: Actual official high and low records may vary slightly from our data, if they occured in-between our weather recording intervals... More about our weather records

Advertising

Győr weather history for previous 24 hours

 ConditionsComfort  
Time TempWeatherWind HumidityBarometerVisibility
7:00 PM
Sun, Aug 30
90 °FHot.3 mph33%30.05 "HgN/A
6:00 PM93 °FHot.5 mph28%30.06 "HgN/A
5:00 PM94 °FExtremely hot.6 mph25%30.07 "HgN/A
4:00 PM95 °FExtremely hot.6 mph26%30.09 "HgN/A
3:00 PM94 °FExtremely hot.5 mph29%30.10 "HgN/A
2:00 PM93 °FExtremely hot.3 mph32%30.12 "HgN/A
1:00 PM92 °FHot.5 mph33%30.14 "HgN/A
12:00 PM91 °FHot.5 mph36%30.15 "HgN/A
11:00 AM89 °FHot.5 mph45%30.15 "HgN/A
10:00 AM85 °FWarm.3 mph51%30.15 "HgN/A
9:00 AM80 °FWarm.1 mph63%30.16 "HgN/A
8:00 AM72 °FMild.1 mph80%30.17 "HgN/A
7:00 AM63 °FMild.1 mph99%30.17 "HgN/A
6:00 AM62 °FCool.No wind99%30.16 "HgN/A
5:00 AM62 °FCool.No wind99%30.17 "HgN/A
4:00 AM63 °FMild.No wind99%30.17 "HgN/A
3:00 AM64 °FMild.No wind99%30.17 "HgN/A
2:00 AM65 °FMild.No wind99%30.17 "HgN/A
1:00 AM67 °FMild.No wind100%30.18 "HgN/A
12:00 AM69 °FMild.No wind99%30.17 "HgN/A
10:00 PM
Sat, Aug 29
72 °FMild.No wind90%30.17 "HgN/A
9:00 PM75 °FMild.No wind83%30.16 "HgN/A
8:00 PM80 °FWarm.No wind71%30.14 "HgN/A
Weather by CustomWeather, © 2015

See weather overviewHow to use our weather pages